2024/02/13 00:00:00, 0.0,-2.3
2024/02/13 00:10:00,---,-2.2
2024/02/13 00:20:00,29.2,-2.2
2024/02/13 00:30:00,29.7,-2.7
2024/02/13 00:40:00, 0.0,-2.3
2024/02/13 00:50:00,---,-2.5
2024/02/13 01:00:00,29.6,-2.4
2024/02/13 01:10:00,29.6,-2.1
2024/02/13 01:20:00,29.2,-2.6
2024/02/13 01:30:00,29.2,-2.4
2024/02/13 01:40:00,29.1,-2.4
2024/02/13 01:50:00, 4.3,-2.6
2024/02/13 02:00:00,---,-2.6
2024/02/13 02:10:00, 0.0,-2.7
2024/02/13 02:20:00, 0.0,-2.8
2024/02/13 02:30:00, 0.0,-2.6
2024/02/13 02:40:00, 0.0,-2.9
2024/02/13 02:50:00, 0.0,-3.1
2024/02/13 03:00:00, 0.0,-3.2
2024/02/13 03:10:00, 0.0,-3.1
2024/02/13 03:20:00, 0.0,-2.6
2024/02/13 03:30:00, 0.0,-3.2
2024/02/13 03:40:00, 0.0,-3.0
2024/02/13 03:50:00, 0.0,-2.9
2024/02/13 04:00:00, 0.0,-3.1
2024/02/13 04:10:00, 0.0,-2.9
2024/02/13 04:20:00, 0.0,-3.0
2024/02/13 04:30:00, 0.0,-3.1
2024/02/13 04:40:00, 0.0,-3.0
2024/02/13 04:50:00, 0.0,-3.0
2024/02/13 05:00:00, 0.0,-3.1
2024/02/13 05:10:00, 0.0,-3.2
2024/02/13 05:20:00, 0.0,-3.0
2024/02/13 05:30:00, 0.0,-3.1
2024/02/13 05:40:00, 0.0,-3.3
2024/02/13 05:50:00, 0.0,-2.7
2024/02/13 06:00:00, 0.0,-2.8
2024/02/13 06:10:00, 0.0,-2.8
2024/02/13 06:20:00, 0.0,-2.9
2024/02/13 06:30:00, 0.0,-2.7
2024/02/13 06:40:00, 0.0,-3.0
2024/02/13 06:50:00, 0.0,-2.7
2024/02/13 07:00:00, 0.0,-3.2
2024/02/13 07:10:00, 0.0,-2.5
2024/02/13 07:20:00, 0.0,-2.4
2024/02/13 07:30:00, 0.0,-2.1
2024/02/13 07:40:00, 0.0,-1.9
2024/02/13 07:50:00, 0.0,-1.8
2024/02/13 08:00:00, 0.0,-1.6
2024/02/13 08:10:00, 0.0,-1.5
2024/02/13 08:20:00, 0.0,-0.9
2024/02/13 08:30:00, 0.0, 0.4
2024/02/13 08:40:00, 0.0, 0.7
2024/02/13 08:50:00, 0.0, 0.8
2024/02/13 09:00:00, 0.0, 1.2
2024/02/13 09:10:00, 0.0, 2.1
2024/02/13 09:20:00, 0.0, 4.1
2024/02/13 09:30:00, 0.0, 5.2
2024/02/13 09:40:00, 0.0, 6.0
2024/02/13 09:50:00, 0.0, 6.3
2024/02/13 10:00:00, 0.0, 7.6
2024/02/13 10:10:00, 0.0, 7.9
2024/02/13 10:20:00, 0.0, 8.2
2024/02/13 10:30:00, 0.0, 8.8
2024/02/13 10:40:00, 0.0,10.3
2024/02/13 10:50:00, 0.0,12.0
2024/02/13 11:00:00, 0.0,12.7
2024/02/13 11:10:00, 0.0,13.9
2024/02/13 11:20:00, 0.0,14.5
2024/02/13 11:30:00,32.0,14.3
2024/02/13 11:40:00,32.0,13.9
2024/02/13 11:50:00,32.0,15.1
2024/02/13 12:00:00,31.8,16.7
2024/02/13 12:10:00,31.7,16.0
2024/02/13 12:20:00,31.4,15.8
2024/02/13 12:30:00,31.4,15.5
2024/02/13 12:40:00,31.2,16.6
2024/02/13 12:50:00,31.2,17.0
2024/02/13 13:00:00,31.0,15.0
2024/02/13 13:10:00,30.9,15.3
2024/02/13 13:20:00,30.7,16.1
2024/02/13 13:30:00,30.3,16.6
2024/02/13 13:40:00,30.1,17.1
2024/02/13 13:50:00,30.0,15.8
2024/02/13 14:00:00,29.7,16.2
2024/02/13 14:10:00,29.6,17.9
2024/02/13 14:20:00,29.4,21.8
2024/02/13 14:30:00,29.2,21.4
2024/02/13 14:40:00,29.0,19.5
2024/02/13 14:50:00,28.8,21.0
2024/02/13 15:00:00,28.5,22.3
2024/02/13 15:10:00,28.3,24.2
2024/02/13 15:20:00,28.3,22.0
2024/02/13 15:30:00,28.1,21.5
2024/02/13 15:40:00,27.9,21.9
2024/02/13 15:50:00,27.8,23.0
2024/02/13 16:00:00,27.6,23.3
2024/02/13 16:10:00,27.6,22.2
2024/02/13 16:20:00,27.6,21.9
2024/02/13 16:30:00,27.5,20.7
2024/02/13 16:40:00,27.5,19.2
2024/02/13 16:50:00,27.4,15.5
2024/02/13 17:00:00,27.3, 8.6
2024/02/13 17:10:00,27.9, 5.4
2024/02/13 17:20:00,28.5, 4.9
2024/02/13 17:30:00,28.2, 4.4
2024/02/13 17:40:00,27.8, 3.3
2024/02/13 17:50:00,27.9, 2.0
2024/02/13 18:00:00,27.7, 1.4
2024/02/13 18:10:00,27.5, 1.1
2024/02/13 18:20:00,27.4, 0.4
2024/02/13 18:30:00,27.5, 0.4
2024/02/13 18:40:00,27.6, 0.4
2024/02/13 18:50:00,27.5, 0.4
2024/02/13 19:00:00,27.4,-0.0
2024/02/13 19:10:00,27.6, 0.1
2024/02/13 19:20:00,27.2,-0.3
2024/02/13 19:30:00,27.0, 0.2
2024/02/13 19:40:00,26.9,-0.1
2024/02/13 19:50:00,26.7,-0.2
2024/02/13 20:00:00,26.5,-0.1
2024/02/13 20:10:00,26.3,-0.6
2024/02/13 20:20:00,---,-0.7
2024/02/13 20:30:00, 0.0,-0.6
2024/02/13 20:40:00, 0.0,-0.7
2024/02/13 20:50:00, 0.0,-0.8
2024/02/13 21:00:00, 0.0,-0.8
2024/02/13 21:10:00, 0.0,-0.4
2024/02/13 21:20:00, 0.0,-1.0
2024/02/13 21:30:00, 0.0,-0.9
2024/02/13 21:40:00, 0.0,-0.8
2024/02/13 21:50:00, 0.0,-1.2
2024/02/13 22:00:00, 0.0,-1.1
2024/02/13 22:10:00, 0.0,-0.6
2024/02/13 22:20:00, 0.0,-0.7
2024/02/13 22:30:00, 0.0,-0.8
2024/02/13 22:40:00, 0.0,-0.7
2024/02/13 22:50:00, 0.0,-1.0
2024/02/13 23:00:00, 0.0,-1.3
2024/02/13 23:10:00, 0.0,-1.1
2024/02/13 23:20:00, 0.0,-1.1
2024/02/13 23:30:00, 0.0,-1.1
2024/02/13 23:40:00, 0.0,-1.1
2024/02/13 23:50:00, 0.0,-1.2
